Regional Weather Roundup
Issued by NWS Goodland, KS

Home | Current Version | Previous Version | Graphics & Text | Print | Product List | Glossary On
Versions: 1 2 3 4 5 6 7 8 9 10 11 12 13 14 15 16 17 18 19 20 21 22 23 24 25 26 27 28 29 30 31 32 33 34 35 36 37 38 39 40 41 42 43 44 45 46 47 48 49 50
000
ASUS43 KGLD 291759
RWRGLD

GOODLAND FORECAST AREA HOURLY WEATHER ROUNDUP
NATIONAL WEATHER SERVICE GOODLAND KS
1200 PM MDT FRI APR 29 2016

...OFFICIAL OBSERVATIONS...

CITY           SKY/WX    TMP DP  RH WIND       PRES   REMARKS
GOODLAND KS    LGT RAIN  38  36  92 E23G31    29.93S
HILL CITY KS   LGT RAIN  42  40  92 E13       30.00F
IMPERIAL NEB   LGT RAIN  41  36  82 E18       30.00F
MCCOOK NEB     LGT RAIN  43  37  79 E17       30.02S
AKRON CO       LGT RAIN  36  34  92 NE12      29.96R FOG
BURLINGTON CO  HVY RAIN  38  34  85 E22G28    29.94R FOG
LIMON CO       LGT SNOW  33  32  96 NE13      29.92F FOG
$$

...UNOFFICIAL OBSERVATIONS...

CITY           SKY/WX    TMP DP  RH WIND       PRES   REMARKS
COLBY KS       LGT RAIN  39  39 100 NE23      29.95F
GOVE KS          N/A     41  32  70 MISG        N/A
LENORA KS        N/A     42  32  68 MISG        N/A
NORTON KS      DRIZZLE   43  36  75 NE16G23   29.99F
KIT CARSON CO    N/A     38  35  90 MISG        N/A
YUMA CO          N/A     39  37  94 NE14        N/A
$$




USA.gov is the U.S. government's official web portal to all federal, state and local government web resources and services.